Change the Weather History Date:

Tuesday, May 8, 2012

  Actual Average Record
Temperature  
Mean Temperature 63 °F -  
Max Temperature 79 °F 69 °F 93 °F (1987)
Min Temperature 48 °F 47 °F 37 °F (1999)
Degree Days  
Heating Degree Days 2    
Growing Degree Days 13 (Base 50)    
Moisture  
Dew Point 42 °F    
Average Humidity 47    
Maximum Humidity 71    
Minimum Humidity 23    
Precipitation  
Precipitation 0.00 in - - ()
Sea Level Pressure  
Sea Level Pressure 30.02 in    
Wind  
Wind Speed 4 mph (South)    
Max Wind Speed 18 mph    
Max Gust Speed -    
Visibility 10 miles    
Events      
Averages and records for this station are not official NWS values.
T = Trace of Precipitation, MM = Missing Value Source: NWS Daily Summary

Daily Weather History Graph

Daily Weather History Graph

Search for Another Location

Airport or City:

Trip Planner

Search our weather history database for the weather conditions in past years. The results will help you decide how hot, cold, wet, or windy it might be!

Date:

Astronomy

May. 08, 2012 Rise Set
Actual Time 5:28 AM PDT 8:11 PM PDT
Civil Twilight 4:54 AM PDT 8:45 PM PDT
Nautical Twilight 4:11 AM PDT 9:29 PM PDT
Astronomical Twilight 3:21 AM PDT 10:19 PM PDT
Moon 11:29 PM PDT (5/8) 7:36 AM PDT (5/8)
Length of Visible Light 15h 50m
Length of Day
14h 42m
Waning Gibbous, 90% of the Moon is Illuminated
May 8
Waning Gibbous
May 12
Last Quarter
May 20
New
May 28
First Quarter
Jun 4
Full

Hourly Weather History & Observations

Time (PDT) Temp. Dew Point Humidity Pressure Visibility Wind Dir Wind Speed Gust Speed Precip Events Conditions
12:53 AM 52.0 °F 41.0 °F 66% 30.12 in 10.0 mi East 6.9 mph - N/A   Clear
1:53 AM 51.1 °F 41.0 °F 68% 30.12 in 10.0 mi Calm Calm - N/A   Clear
2:53 AM 48.9 °F 39.9 °F 71% 30.12 in 10.0 mi East 4.6 mph - N/A   Clear
3:53 AM 50.0 °F 39.9 °F 68% 30.11 in 10.0 mi ESE 6.9 mph - N/A   Clear
4:53 AM 51.1 °F 39.9 °F 66% 30.10 in 10.0 mi East 6.9 mph - N/A   Clear
5:53 AM 52.0 °F 39.0 °F 61% 30.09 in 10.0 mi Calm Calm - N/A   Clear
6:53 AM 55.0 °F 44.1 °F 67% 30.10 in 10.0 mi Calm Calm - N/A   Clear
7:53 AM 57.2 °F 42.8 °F 59% 30.11 in 10.0 mi Calm Calm - N/A   Clear
8:53 AM 63.0 °F 41.0 °F 45% 30.11 in 10.0 mi West 4.6 mph - N/A   Clear
9:53 AM 66.0 °F 41.0 °F 40% 30.09 in 10.0 mi Calm Calm - N/A   Clear
10:53 AM 69.1 °F 42.1 °F 38% 30.07 in 10.0 mi Variable 4.6 mph - N/A   Clear
11:53 AM 71.1 °F 39.9 °F 32% 30.05 in 10.0 mi SSW 3.5 mph - N/A   Clear
12:53 PM 73.9 °F 41.0 °F 30% 30.02 in 10.0 mi Calm Calm - N/A   Clear
1:53 PM 77.0 °F 39.9 °F 26% 30.00 in 10.0 mi Calm Calm - N/A   Clear
2:53 PM 78.1 °F 43.0 °F 29% 29.97 in 10.0 mi WSW 3.5 mph - N/A   Clear
3:53 PM 78.1 °F 37.0 °F 23% 29.94 in 10.0 mi Variable 3.5 mph - N/A   Clear
4:53 PM 77.0 °F 44.1 °F 31% 29.93 in 10.0 mi West 4.6 mph - N/A   Clear
5:53 PM 75.9 °F 46.0 °F 35% 29.92 in 10.0 mi WSW 4.6 mph - N/A   Clear
6:53 PM 75.0 °F 50.0 °F 41% 29.91 in 10.0 mi SW 3.5 mph - N/A   Clear
7:53 PM 71.1 °F 48.9 °F 45% 29.91 in 10.0 mi South 4.6 mph - N/A   Clear
8:53 PM 64.9 °F 48.0 °F 54% 29.92 in 10.0 mi ESE 4.6 mph - N/A   Clear
9:53 PM 66.9 °F 45.0 °F 45% 29.92 in 10.0 mi South 5.8 mph - N/A   Clear
10:53 PM 66.0 °F 41.0 °F 40% 29.94 in 10.0 mi South 16.1 mph - N/A   Clear
11:53 PM 64.0 °F 39.0 °F 40% 29.94 in 10.0 mi South 18.4 mph - N/A   Clear